• In Netherlands
  • List of Countries
  • For 7 days
  • Water Temperature
  • Satellite Maps
  • Weather Map
  • Weather Widgets
  • user-avatar
    Login

    Hourly Weather Dangriga

    Today, 26 March, Sunday

    Time Temperature Precipitation Wind Pressure Humidity
    00:00 +19°C° 0 mm 3 mps 761 mmHg 93%
    01:00 +19°C° 0 mm 3 mps 761 mmHg 93%
    02:00 +18°C° 0 mm 2 mps 760 mmHg 93%
    03:00 +18°C° 0 mm 2 mps 760 mmHg 93%
    04:00 +18°C° 0 mm 2 mps 760 mmHg 94%
    05:00 +18°C° 0 mm 2 mps 760 mmHg 94%
    06:00 +18°C° 0 mm 2 mps 760 mmHg 94%
    07:00 +21°C° 0 mm 2 mps 761 mmHg 81%
    08:00 +26°C° 0 mm 2 mps 761 mmHg 68%
    09:00 +29°C° 0 mm 3 mps 761 mmHg 55%
    10:00 +30°C° 0 mm 3 mps 761 mmHg 51%
    11:00 +31°C° 0 mm 3 mps 761 mmHg 48%
    12:00 +33°C° 0 mm 3 mps 761 mmHg 44%
    13:00 +33°C° 0 mm 3 mps 760 mmHg 43%
    14:00 +33°C° 0 mm 3 mps 760 mmHg 43%
    15:00 +33°C° 0 mm 3 mps 759 mmHg 42%
    16:00 +30°C° 0 mm 3 mps 759 mmHg 52%
    17:00 +28°C° 0 mm 3 mps 759 mmHg 62%
    18:00 +26°C° 0 mm 3 mps 759 mmHg 72%
    19:00 +24°C° 0 mm 3 mps 760 mmHg 79%
    20:00 +21°C° 0 mm 3 mps 760 mmHg 86%
    21:00 +20°C° 0 mm 3 mps 760 mmHg 92%
    22:00 +20°C° 0 mm 3 mps 760 mmHg 93%
    23:00 +20°C° 0 mm 3 mps 760 mmHg 94%

    Tomorrow, 27 March, Monday

    Time Temperature Precipitation Wind Pressure Humidity
    00:00 +20°C° 0 mm 3 mps 760 mmHg 95%
    01:00 +20°C° 0 mm 3 mps 760 mmHg 96%
    02:00 +20°C° 0 mm 3 mps 759 mmHg 96%
    03:00 +21°C° 0 mm 3 mps 759 mmHg 96%
    04:00 +21°C° 0 mm 3 mps 759 mmHg 96%
    05:00 +21°C° 0 mm 3 mps 759 mmHg 96%
    06:00 +21°C° 0 mm 3 mps 759 mmHg 96%
    07:00 +24°C° 0 mm 3 mps 759 mmHg 83%
    08:00 +27°C° 0 mm 3 mps 760 mmHg 71%
    09:00 +30°C° 0 mm 3 mps 760 mmHg 59%
    10:00 +31°C° 0 mm 3 mps 760 mmHg 55%
    11:00 +33°C° 0 mm 3 mps 760 mmHg 52%
    12:00 +34°C° 0 mm 4 mps 759 mmHg 49%
    13:00 +33°C° 0 mm 4 mps 759 mmHg 50%
    14:00 +33°C° 0 mm 4 mps 758 mmHg 50%
    15:00 +33°C° 0 mm 4 mps 757 mmHg 51%
    16:00 +30°C° 0 mm 4 mps 757 mmHg 60%
    17:00 +28°C° 0 mm 4 mps 757 mmHg 69%
    18:00 +26°C° 0 mm 4 mps 757 mmHg 78%
    19:00 +25°C° 0 mm 4 mps 758 mmHg 83%
    20:00 +22°C° 0 mm 4 mps 758 mmHg 89%
    21:00 +21°C° 0 mm 4 mps 759 mmHg 94%
    22:00 +21°C° 0 mm 4 mps 759 mmHg 94%
    23:00 +22°C° 0 mm 4 mps 759 mmHg 95%

    Day after tomorrow, 28 March, Tuesday

    Time Temperature Precipitation Wind Pressure Humidity
    00:00 +22°C° 0 mm 4 mps 759 mmHg 95%
    01:00 +22°C° 0 mm 4 mps 759 mmHg 94%
    02:00 +23°C° 0 mm 4 mps 758 mmHg 94%
    03:00 +23°C° 0 mm 4 mps 758 mmHg 93%
    04:00 +23°C° 0 mm 4 mps 758 mmHg 94%
    05:00 +23°C° 0 mm 4 mps 758 mmHg 94%
    06:00 +23°C° 0 mm 4 mps 758 mmHg 95%
    07:00 +26°C° 0 mm 4 mps 759 mmHg 87%
    08:00 +27°C° 0 mm 4 mps 759 mmHg 79%
    09:00 +29°C° 0 mm 4 mps 760 mmHg 71%
    10:00 +30°C° 0 mm 4 mps 760 mmHg 67%
    11:00 +32°C° 0 mm 4 mps 759 mmHg 63%
    12:00 +33°C° 0 mm 4 mps 759 mmHg 59%
    13:00 +33°C° 0 mm 4 mps 758 mmHg 58%
    14:00 +33°C° 0 mm 5 mps 757 mmHg 58%
    15:00 +33°C° 0 mm 5 mps 756 mmHg 58%
    16:00 +30°C° 0 mm 5 mps 757 mmHg 65%
    17:00 +29°C° 0 mm 4 mps 757 mmHg 72%
    18:00 +27°C° 0 mm 4 mps 757 mmHg 80%
    19:00 +26°C° 0 mm 4 mps 758 mmHg 84%
    20:00 +25°C° 0 mm 4 mps 758 mmHg 89%
    21:00 +23°C° 0 mm 4 mps 759 mmHg 93%
    22:00 +23°C° 0 mm 4 mps 759 mmHg 94%
    23:00 +23°C° 0 mm 4 mps 759 mmHg 94%

    29 March, Wednesday

    Time Temperature Precipitation Wind Pressure Humidity
    00:00 +23°C° 0 mm 4 mps 758 mmHg 94%
    01:00 +23°C° 0 mm 4 mps 758 mmHg 94%
    02:00 +23°C° 0 mm 4 mps 758 mmHg 93%
    03:00 +23°C° 0 mm 4 mps 757 mmHg 93%
    04:00 +25°C° 0 mm 4 mps 757 mmHg 92%
    05:00 +25°C° 0 mm 4 mps 758 mmHg 92%
    06:00 +26°C° 0 mm 4 mps 758 mmHg 91%
    07:00 +27°C° 0 mm 4 mps 758 mmHg 85%
    08:00 +28°C° 0 mm 4 mps 759 mmHg 79%
    09:00 +30°C° 0 mm 4 mps 759 mmHg 73%
    10:00 +32°C° 0 mm 4 mps 759 mmHg 67%
    11:00 +33°C° 0 mm 3 mps 758 mmHg 62%
    12:00 +35°C° 0 mm 3 mps 758 mmHg 56%
    13:00 +35°C° 0 mm 3 mps 757 mmHg 55%
    14:00 +35°C° 0 mm 4 mps 756 mmHg 54%
    15:00 +35°C° 0 mm 4 mps 755 mmHg 54%
    16:00 +33°C° 0 mm 4 mps 755 mmHg 62%
    17:00 +32°C° 0 mm 4 mps 756 mmHg 70%
    18:00 +29°C° 0 mm 5 mps 756 mmHg 78%
    19:00 +28°C° 0 mm 5 mps 756 mmHg 83%
    20:00 +27°C° 0 mm 4 mps 757 mmHg 89%
    21:00 +26°C° 0 mm 4 mps 757 mmHg 94%
    22:00 +25°C° 0 mm 4 mps 757 mmHg 94%
    23:00 +25°C° 0 mm 4 mps 757 mmHg 94%

    30 March, Thursday

    Time Temperature Precipitation Wind Pressure Humidity
    00:00 +25°C° 0 mm 4 mps 757 mmHg 95%
    01:00 +25°C° 0 mm 4 mps 757 mmHg 95%
    02:00 +25°C° 0 mm 4 mps 756 mmHg 95%
    03:00 +25°C° 0 mm 4 mps 756 mmHg 94%
    04:00 +25°C° 0 mm 4 mps 756 mmHg 94%
    05:00 +26°C° 0 mm 4 mps 757 mmHg 93%
    06:00 +26°C° 0 mm 4 mps 757 mmHg 92%
    07:00 +28°C° 0 mm 3 mps 757 mmHg 83%
    08:00 +30°C° 0 mm 3 mps 758 mmHg 73%
    09:00 +33°C° 0 mm 3 mps 758 mmHg 64%
    10:00 +35°C° 0 mm 3 mps 758 mmHg 58%
    11:00 +36°C° 0 mm 2 mps 757 mmHg 51%
    12:00 +38°C° 0 mm 2 mps 756 mmHg 45%
    13:00 +38°C° 0 mm 3 mps 756 mmHg 45%
    14:00 +38°C° 0 mm 3 mps 755 mmHg 46%
    15:00 +38°C° 0 mm 3 mps 754 mmHg 46%
    16:00 +36°C° 0 mm 4 mps 754 mmHg 56%
    17:00 +33°C° 0 mm 4 mps 755 mmHg 67%
    18:00 +30°C° 0 mm 4 mps 755 mmHg 77%
    19:00 +28°C° 0 mm 4 mps 755 mmHg 83%
    20:00 +27°C° 0 mm 4 mps 756 mmHg 89%
    21:00 +25°C° 0 mm 4 mps 757 mmHg 95%
    22:00 +26°C° 0 mm 4 mps 757 mmHg 95%
    23:00 +26°C° 0 mm 4 mps 757 mmHg 96%

    31 March, Friday

    Time Temperature Precipitation Wind Pressure Humidity
    00:00 +26°C° 0 mm 3 mps 756 mmHg 97%
    01:00 +26°C° 0 mm 3 mps 756 mmHg 97%
    02:00 +26°C° 0 mm 3 mps 756 mmHg 97%
    03:00 +26°C° 0 mm 3 mps 756 mmHg 97%
    04:00 +26°C° 0 mm 3 mps 756 mmHg 97%
    05:00 +26°C° 0 mm 2 mps 756 mmHg 96%
    06:00 +26°C° 0 mm 2 mps 757 mmHg 96%
    07:00 +29°C° 0 mm 2 mps 757 mmHg 84%
    08:00 +31°C° 0 mm 2 mps 757 mmHg 72%
    09:00 +34°C° 0 mm 1 mps 758 mmHg 60%
    10:00 +36°C° 0 mm 2 mps 757 mmHg 54%
    11:00 +38°C° 0 mm 2 mps 757 mmHg 47%
    12:00 +39°C° 0 mm 2 mps 756 mmHg 41%
    13:00 +39°C° 0 mm 3 mps 756 mmHg 42%
    14:00 +38°C° 0 mm 3 mps 755 mmHg 44%
    15:00 +38°C° 0 mm 4 mps 754 mmHg 45%
    16:00 +36°C° 0 mm 4 mps 755 mmHg 56%
    17:00 +33°C° 0 mm 4 mps 755 mmHg 66%
    18:00 +30°C° 0 mm 4 mps 755 mmHg 77%
    19:00 +29°C° 0 mm 4 mps 756 mmHg 83%
    20:00 +27°C° 0 mm 4 mps 756 mmHg 89%
    21:00 +25°C° 0 mm 4 mps 757 mmHg 96%
    22:00 +25°C° 0 mm 4 mps 757 mmHg 96%
    23:00 +25°C° 0 mm 4 mps 757 mmHg 97%
    Show more